HUANJING 1A (HJ-1A)

Last updated on Tue Sep 16 2025 00:02:30 GMT+0000 (Coordinated Universal Time)

1 33320U 08041A 25258.65601391 .00001282 00000+0 16372-3 0 9991 2 33320 97.6481 250.6773 0018270 324.1974 35.8014 14.82979172917701
UTC large
Height (km)
Speed (km/s)
/
Latitude / Longitude
Inclination (degrees)
Orbital Period (minutes)
Azimuth
Elevation
Range (km)
Doppler Factor

Next 0 passes for location: London (51.5072 / 0.1276)

Sorry there are no passes over London.